This is the latest recevied weather packets stored in our database for station/object VK6WB. If no packets are shown the sender has not sent any weather packets the latest 10 day(s).
| Time | Temp. | Humidity | Pressure | Rain* | Wind** | Luminosity | Snow |
|---|---|---|---|---|---|---|---|
| 1778094604 | 13.89° C | 58% | 1025.4 hPa | 0 mm | - | 168 W/m² | - |
| 1778094006 | 13.89° C | 57% | 1025.4 hPa | 0 mm | - | 168 W/m² | - |
| 1778093405 | 13.89° C | 58% | 1025.4 hPa | 0 mm | - | 271 W/m² | - |
| 1778092805 | 13.89° C | 57% | 1025.4 hPa | 0 mm | - | 323 W/m² | - |
| 1778092206 | 13.89° C | 58% | 1025.5 hPa | 0 mm | - | 426 W/m² | - |
| 1778091605 | 13.89° C | 59% | 1025.4 hPa | 0 mm | - | 582 W/m² | - |
| 1778091005 | 13.89° C | 59% | 1025.4 hPa | 0 mm | - | 685 W/m² | - |
| 1778090405 | 13.89° C | 59% | 1025.3 hPa | 0 mm | - | 737 W/m² | - |
| 1778089805 | 13.89° C | 58% | 1025.3 hPa | 0 mm | - | 737 W/m² | - |
| 1778089205 | 13.89° C | 58% | 1025.3 hPa | 0 mm | - | 737 W/m² | - |
| 1778088605 | 13.89° C | 58% | 1025.2 hPa | 0 mm | - | 737 W/m² | - |
| 1778088005 | 14.44° C | 58% | 1025.2 hPa | 0 mm | - | 789 W/m² | - |
| 1778087406 | 14.44° C | 58% | 1025.2 hPa | 0 mm | - | 789 W/m² | - |
| 1778086805 | 14.44° C | 57% | 1025.3 hPa | 0 mm | - | 737 W/m² | - |
| 1778086205 | 15° C | 57% | 1025.1 hPa | 0 mm | - | 686 W/m² | - |
| 1778085605 | 15° C | 56% | 1025.2 hPa | 0 mm | - | 634 W/m² | - |
| 1778085005 | 15° C | 56% | 1025.4 hPa | 0 mm | - | 686 W/m² | - |
| 1778084405 | 15° C | 56% | 1025.4 hPa | 0 mm | - | 686 W/m² | - |
| 1778083805 | 15.56° C | 54% | 1025.5 hPa | 0 mm | - | 737 W/m² | - |
| 1778083206 | 15.56° C | 53% | 1025.4 hPa | 0 mm | - | 789 W/m² | - |
| 1778082605 | 15.56° C | 53% | 1025.4 hPa | 0 mm | - | 841 W/m² | - |
| 1778082005 | 15.56° C | 53% | 1025.3 hPa | 0 mm | - | 893 W/m² | - |
| 1778081405 | 15.56° C | 54% | 1025.3 hPa | 0 mm | - | 893 W/m² | - |
| 1778080805 | 15.56° C | 53% | 1025.3 hPa | 0 mm | - | 841 W/m² | - |
| 1778080206 | 16.11° C | 53% | 1025.5 hPa | 0 mm | - | 841 W/m² | - |
* Rain latest hour (hover to see other rain measurements)
** Current wind speed in m/s (hover to see current wind gust speed)